Location: Azenweiler
(47.8027°N, 9.4096°E)
Time: 08:06:21
(UTC+00:00)

DMSP B5D1-3 - Pass Details

Date: 10 December 2025
Orbit: 758 x 773 km, 98.5° (Epoch: 13 January)

Event Time Altitude Azimuth Distance (km) Brightness Sun altitude
Rises 05:12:03 0° 165° (SSE) 3,236 8.2 -17.3°
Reaches altitude 10° 05:14:21 10° 166° (SSE) 2,312 7.4 -16.9°
Maximum altitude 05:19:28 86° 254° (WSW) 781 4.4 -16.1°
Drops below altitude 10° 05:24:37 10° 345° (NNW) 2,324 6.7 -15.3°
Enters shadow 05:26:19 - 346° (NNW) 3,005 7.3 -15.0°
